Concordia, KS

9:45 AM CST on December 09, 2019 (GMT -0600)
Blosser Municipal

Weather History for KCNK - August, 2019

Change the Weather History Date:

Saturday, August 10, 2019

  Actual Average Record
Temperature  
Mean Temperature 79 °F 78 °F  
Max Temperature 88 °F 90 °F 106 °F (1911)
Min Temperature 70 °F 67 °F 52 °F (1985)
Degree Days  
Heating Degree Days 0 0  
Month to date heating degree days 0 0  
Since 1 June heating degree days 0 13  
Since 1 July heating degree days 0 0  
Cooling Degree Days 14 13  
Month to date cooling degree days 133 135  
Year to date cooling degree days 1038 925  
Since 1 June cooling degree days 938 836  
Growing Degree Days 29 (Base 50)    
Moisture  
Dew Point 74 °F    
Average Humidity 83    
Maximum Humidity 97    
Minimum Humidity 68    
Precipitation  
Precipitation 0.00 in 0.10 in 2.37 in (1968)
Month to date precipitation 1.63 1.07  
Year to date precipitation 23.86 19.03  
Snow  
Snow 0.00 in 0.00 in 0.00 in ()
Month to date snowfall 0.0 0.0  
Year to date snowfall 32.3 13.7  
Since 1 July snowfall 0.0 0.0  
Snow Depth 0.00 in    
Sea Level Pressure  
Sea Level Pressure 29.89 in    
Wind  
Wind Speed 8 mph (SSE)    
Max Wind Speed 16 mph    
Max Gust Speed 21 mph    
Visibility 9 miles    
Events      
T = Trace of Precipitation, MM = Missing Value Source: NWS Daily Summary

Daily Weather History Graph

Daily Weather History Graph

Search for Another Location

Airport or City:

Astronomy

Aug. 10, 2019 Rise Set
Actual Time 6:38 AM CDT 8:33 PM CDT
Civil Twilight 6:08 AM CDT 9:02 PM CDT
Nautical Twilight 5:33 AM CDT 9:37 PM CDT
Astronomical Twilight 4:54 AM CDT 10:15 PM CDT
Moon 5:16 PM CDT (8/10) 2:16 AM CDT (8/10)
Length of Visible Light 14h 53m
Length of Day
13h 54m
Waxing Gibbous, 79% of the Moon is Illuminated
Aug 10
Waxing Gibbous
Aug 15
Full
Aug 23
Last Quarter
Aug 30
New
Sep 5
First Quarter

Hourly Weather History & Observations

Time (CDT) Temp. Heat Index Dew Point Humidity Pressure Visibility Wind Dir Wind Speed Gust Speed Precip Events Conditions
12:55 AM 75.0 °F - 70.0 °F 84% 29.89 in 10.0 mi South 8.1 mph - N/A   Clear
1:55 AM 73.9 °F - 71.1 °F 91% 29.88 in 10.0 mi South 10.4 mph - N/A   Clear
2:55 AM 73.9 °F - 71.1 °F 91% 29.89 in 10.0 mi South 8.1 mph - N/A   Scattered Clouds
3:55 AM 73.9 °F - 71.1 °F 91% 29.87 in 10.0 mi South 8.1 mph - N/A   Clear
4:55 AM 73.0 °F - 71.1 °F 93% 29.88 in 10.0 mi SE 4.6 mph - N/A   Clear
5:55 AM 71.1 °F - 69.1 °F 93% 29.88 in 4.0 mi Calm Calm - N/A   Partly Cloudy
6:08 AM 71.1 °F - 69.1 °F 93% 29.93 in 2.5 mi ESE 4.6 mph - N/A   Clear
6:17 AM 71.1 °F - 70.0 °F 96% 29.94 in 5.0 mi East 4.6 mph - N/A   Clear
6:55 AM 71.1 °F - 70.0 °F 96% 29.93 in 4.0 mi NNE 4.6 mph - N/A   Mostly Cloudy
7:55 AM 73.0 °F - 71.1 °F 93% 29.90 in 7.0 mi SSW 8.1 mph - N/A   Clear
8:29 AM 75.0 °F - 72.0 °F 90% 29.95 in 9.0 mi West 4.6 mph - N/A   Scattered Clouds
8:38 AM 75.0 °F - 73.0 °F 94% 29.94 in 9.0 mi WSW 5.8 mph - N/A   Mostly Cloudy
8:55 AM 75.9 °F - 73.0 °F 91% 29.90 in 10.0 mi SW 9.2 mph - N/A   Overcast
9:33 AM 77.0 °F - 73.9 °F 90% 29.92 in 10.0 mi SSW 9.2 mph - N/A   Scattered Clouds
9:55 AM 79.0 °F - 73.9 °F 84% 29.86 in 10.0 mi SW 11.5 mph - N/A   Clear
10:43 AM 80.1 °F 85.1 °F 75.0 °F 85% 29.92 in 10.0 mi SSW 10.4 mph - N/A   Scattered Clouds
10:55 AM 80.1 °F 84.5 °F 73.9 °F 81% 29.87 in 10.0 mi South 12.7 mph - N/A   Partly Cloudy
11:55 AM 84.9 °F 94.1 °F 75.9 °F 74% 29.87 in 10.0 mi SSW 9.2 mph - N/A   Clear
12:55 PM 87.1 °F 97.3 °F 75.9 °F 69% 29.86 in 10.0 mi Variable 6.9 mph - N/A   Clear
1:55 PM 87.1 °F 99.8 °F 78.1 °F 74% 29.86 in 10.0 mi South 10.4 mph - N/A   Partly Cloudy
2:50 PM 87.8 °F 102.5 °F 78.8 °F 75% 29.91 in 10.0 mi South 12.7 mph - N/A   Mostly Cloudy
2:55 PM 87.1 °F 99.8 °F 78.1 °F 74% 29.86 in 10.0 mi South 12.7 mph - N/A   Mostly Cloudy
3:55 PM 87.1 °F 101.5 °F 79.0 °F 77% 29.87 in 10.0 mi South 12.7 mph - N/A   Mostly Cloudy
4:55 PM 84.9 °F 95.3 °F 77.0 °F 77% 29.86 in 10.0 mi SSE 9.2 mph - N/A   Mostly Cloudy
5:40 PM 86.0 °F 96.9 °F 77.0 °F 74% 29.91 in 10.0 mi ESE 9.2 mph - N/A   Scattered Clouds
5:55 PM 86.0 °F 96.9 °F 77.0 °F 74% 29.86 in 10.0 mi SE 8.1 mph - N/A   Clear
6:55 PM 84.9 °F 96.6 °F 78.1 °F 80% 29.85 in 9.0 mi SSE 9.2 mph - N/A   Partly Cloudy
7:55 PM 84.0 °F 94.8 °F 78.1 °F 82% 29.84 in 9.0 mi SSE 9.2 mph - N/A   Clear
8:55 PM 82.0 °F 91.0 °F 78.1 °F 88% 29.85 in 10.0 mi ESE 4.6 mph - N/A   Clear
9:55 PM 81.0 °F 88.6 °F 78.1 °F 91% 29.88 in 10.0 mi SE 3.5 mph - N/A   Clear
10:55 PM 79.0 °F - 77.0 °F 94% 29.89 in 8.0 mi SE 4.6 mph - N/A   Clear
11:55 PM 80.1 °F 85.8 °F 77.0 °F 90% 29.88 in 8.0 mi East 3.5 mph - N/A   Clear